Tracking 19795 objects as of 20-Jul-2019
HD Live streaming from Space Station
objects crossing your sky now

FENGYUN 1C DEB

Track FENGYUN 1C DEB now!
10-day predictions


NORAD ID: 30516
Int'l Code: 1999-025AJE
Perigee: 824.7 km
Apogee: 843.6 km
Inclination: 99.0 °
Period: 101.4 minutes
Semi major axis: 7205 km
RCS: 0.0157 m2 (small)
Launch date: May 10, 1999
Source: People's Republic of China (PRC)
Launch site: Taiyaun Space Center, China (TSC)

Note: This is SATELLITE DEBRIS
aabbcc
Your satellite tracking list
Your tracking list is empty




NASA's NSSDC Master Catalog

Two Line Element Set (TLE):
1 30516U 99025AJE 19199.80152095  .00000587  00000-0  30018-3 0  9994
2 30516  98.9577 238.2514 0013155 200.9143 223.2186 14.19513817644199
Source of the keplerian elements: AFSPC